{"data":{"norad_id":62437,"epoch":"2026-09-21T20:40:21.343296Z","epoch_age_seconds":56816,"freshness":"FRESH","line1":"1 62437U 24251F   26264.86135814  .00011939  00000+0  36375-3 0  9991","line2":"2 62437  53.1580 139.0321 0001244 114.2058 245.9075 15.34416097 98051","mean_motion":15.34416097,"eccentricity":0.0001244,"inclination_deg":53.158,"raan_deg":139.0321,"arg_perigee_deg":114.2058,"mean_anomaly_deg":245.9075,"bstar":0.00036375,"rev_number":9805,"period_min":93.846773558711,"perigee_km":461.8044023749,"apogee_km":463.50639152326,"semimajor_km":6840.7923969491,"source":"CELESTRAK","updated_at":"2026-09-22T09:00:49.580905Z"}}